Вернуться в каталог

STARLINK-32045

АктивенСвязьVLEO
NORAD 60106·PAYLOAD·🇺🇸 United States

Запущен Jun 23, 2024 с Cape Canaveral Space Force Station

Loading…

Ближайшие Пролёты (ближайшие 24 часа)

TLE

СвежийSource: CelesTrak SupGP

Эпоха: Sep 15, 2026, 03:21 UTC

1 60106C 24117R   26258.14006944 -.00050586  00000+0 -14946-2 0  2588
2 60106  53.1572 234.4816 0001328  90.7985 129.1653 15.34415215    17

Отслеживайте STARLINK-32045 в реальном времени с AllMySat

Download on the App Store